Regional Weather Roundup
Issued by NWS

Home | Current Version | Previous Version | Graphics & Text | Print | Product List | Glossary On
Versions: 1 2 3 4 5 6 7 8 9 10 11 12 13 14 15 16 17 18 19 20 21 22 23 24 25 26 27 28 29 30 31 32 33 34 35 36 37 38 39 40 41 42 43 44 45 46 47 48 49 50
000
ASUS45 KSLC 030210
RWRUT

UTAH REGIONAL WEATHER ROUNDUP
NATIONAL WEATHER SERVICE SALT LAKE CITY UT
800 PM MDT TUE JUN 02 2015

UTZ001>011-023>025-030300-

NORTHERN UTAH

CITY           SKY/WX    TMP DP  RH WIND       PRES   REMARKS
BRIGHAM CITY   PTCLDY    77  31  18 CALM      29.92S
HILL AFB       PTCLDY    74  39  28 N5        29.94F
LOGAN          CLEAR     73  50  44 CALM      29.92F
OGDEN          MOCLDY    77  39  25 N7        29.92S
PROVO AIRPORT  PTCLDY    77  43  29 NW12      29.90F
SALT LAKE CITY PTCLDY    75  47  36 N9        29.90S
VERNAL         CLEAR     79  29  16 E3        29.90S
WENDOVER       CLEAR     79  36  21 E5        29.90S
HEBER CITY     CLEAR     73  34  23 CALM      29.97S
WEST JORDAN    CLEAR     73  43  33 NW5       29.94S

$$

UTZ012>022-026-027-030300-

SOUTHERN/CENTRAL UTAH

CITY           SKY/WX    TMP DP  RH WIND       PRES   REMARKS
BLANDING       CLEAR     78  21  12 SW8G16    30.06S
BRYCE CANYON   CLEAR     68  25  19 SW8       30.12R
CEDAR CITY     CLEAR     74  21  13 SW14      29.98R
DELTA          CLEAR     83  20   9 SW3       29.88F
HANKSVILLE     CLEAR     86  12   6 SW20      29.85S
MILFORD        CLEAR     78  20  11 SW16      29.91S
MOAB/CYNLANDS  CLEAR     84  16   8 S10       29.85S
PRICE          PTCLDY    80  20  10 W10       29.94S
ST GEORGE      CLEAR     90  27  10 W13G18    29.82S

$$

REGIONAL REPORTS     COLORADO/ARIZONA

CITY           SKY/WX    TMP DP  RH WIND       PRES   REMARKS
CRAIG, CO      CLEAR     64  43  46 SW8       29.99R
GRAND JUNCTION CLEAR     80  19  10 NW10      29.89R
RIFLE          CLEAR     76  32  20 W8        29.93S
MONTROSE       CLEAR     79  21  11 SW8       30.01R
CORTEZ         CLEAR     74  34  23 S6        30.03R
PAGE, AZ       CLEAR     88  17   7 S3        29.86R
GRAND CANYON   CLEAR     73   6   7 SW14G24   30.10R
KINGMAN        CLEAR     84  18   8 SW14      29.89S
FLAGSTAFF      CLEAR     68  21  16 SW12G21   30.15S

$$

REGIONAL REPORTS    NEVADA/IDAHO/WYOMING

CITY           SKY/WX    TMP DP  RH WIND       PRES   REMARKS
LAS VEGAS, NV  CLEAR     92  19   7 S15       29.72S
ELY            PTCLDY    71  37  28 NE13      29.99R
ELKO           SUNNY     73  26  17 W9        29.97S
POCATELLO, ID  PTCLDY    69  46  43 W12       29.96S
BURLEY         SUNNY     70  41  34 W3        29.94R
EVANSTON, WY   PTCLDY    63  35  35 W15       30.07S
ROCK SPRINGS   PTCLDY    68  30  24 NW14      30.03R
KEMMERER       PTCLDY    61  32  33 W14       30.09R

$$



USA.gov is the U.S. government's official web portal to all federal, state and local government web resources and services.